Time,TemperatureF,DewpointF,PressureIn,WindDirection,WindDirectionDegrees,WindSpeedMPH,WindSpeedGustMPH,Humidity,HourlyPrecipIn,Conditions,Clouds,dailyrainin,SoftwareType,DateUTC
2013-04-25 00:01:00,58.2,44.8,30.03,NNW,341,0.0,0.0,61,0.00,,---,0.00,VWS V14.01,2013-04-25 04:01:00,
2013-04-25 00:06:00,58.1,44.7,30.04,WNW,302,3.0,5.0,61,0.00,,---,0.00,VWS V14.01,2013-04-25 04:06:00,
2013-04-25 00:11:00,57.8,44.5,30.04,NW,314,3.0,9.0,61,0.00,,---,0.00,VWS V14.01,2013-04-25 04:11:00,
2013-04-25 00:16:00,57.5,44.2,30.05,NNE,32,2.0,10.0,61,0.00,,---,0.00,VWS V14.01,2013-04-25 04:16:00,
2013-04-25 00:21:00,56.8,43.5,30.05,NNE,22,5.0,11.0,61,0.00,,---,0.00,VWS V14.01,2013-04-25 04:21:00,
2013-04-25 00:26:00,56.1,43.3,30.05,NNW,334,5.0,15.0,62,0.00,,---,0.00,VWS V14.01,2013-04-25 04:26:00,
2013-04-25 00:31:00,55.7,42.9,30.04,North,355,13.0,13.0,62,0.00,,---,0.00,VWS V14.01,2013-04-25 04:31:00,
2013-04-25 00:36:00,55.3,42.5,30.04,NW,315,14.0,15.0,62,0.00,,---,0.00,VWS V14.01,2013-04-25 04:36:00,
2013-04-25 00:41:00,55.0,42.2,30.05,NW,317,10.0,15.0,62,0.00,,---,0.00,VWS V14.01,2013-04-25 04:41:00,
2013-04-25 00:46:00,54.6,41.9,30.06,NW,314,6.0,15.0,62,0.00,,---,0.00,VWS V14.01,2013-04-25 04:46:00,
2013-04-25 00:51:00,54.2,41.1,30.06,NNW,348,7.0,17.0,61,0.00,,---,0.00,VWS V14.01,2013-04-25 04:51:00,
2013-04-25 00:56:00,53.9,40.8,30.06,NW,319,5.0,17.0,61,0.00,,---,0.00,VWS V14.01,2013-04-25 04:56:00,
2013-04-25 01:01:00,53.7,40.6,30.06,NNW,329,10.0,10.0,61,0.00,,---,0.00,VWS V14.01,2013-04-25 05:01:00,
2013-04-25 01:06:00,53.4,40.7,30.07,WNW,294,9.0,13.0,62,0.00,,---,0.00,VWS V14.01,2013-04-25 05:06:00,
2013-04-25 01:11:00,53.3,40.2,30.07,NW,323,8.0,13.0,61,0.00,,---,0.00,VWS V14.01,2013-04-25 05:11:00,
2013-04-25 01:16:00,53.1,40.4,30.07,NNW,345,5.0,13.0,62,0.00,,---,0.00,VWS V14.01,2013-04-25 05:16:00,
2013-04-25 01:21:00,52.7,40.9,30.07,North,355,5.0,13.0,64,0.00,,---,0.00,VWS V14.01,2013-04-25 05:21:00,
2013-04-25 01:26:00,52.2,40.8,30.07,North,355,6.0,13.0,65,0.00,,---,0.00,VWS V14.01,2013-04-25 05:26:00,
2013-04-25 01:31:00,51.8,40.4,30.07,North,355,7.0,9.0,65,0.00,,---,0.00,VWS V14.01,2013-04-25 05:31:00,
2013-04-25 01:36:00,51.6,40.2,30.08,North,5,3.0,9.0,65,0.00,,---,0.00,VWS V14.01,2013-04-25 05:36:00,
2013-04-25 01:41:00,51.4,40.0,30.08,NNW,341,2.0,9.0,65,0.00,,---,0.00,VWS V14.01,2013-04-25 05:41:00,
2013-04-25 01:46:00,51.2,40.2,30.08,NNW,328,5.0,9.0,66,0.00,,---,0.00,VWS V14.01,2013-04-25 05:46:00,
2013-04-25 01:51:00,51.0,39.7,30.08,NNW,344,7.0,14.0,65,0.00,,---,0.00,VWS V14.01,2013-04-25 05:51:00,
2013-04-25 01:56:00,50.8,39.5,30.08,North,360,10.0,14.0,65,0.00,,---,0.00,VWS V14.01,2013-04-25 05:56:00,
2013-04-25 02:01:00,50.5,39.2,30.09,North,5,11.0,12.0,65,0.00,,---,0.00,VWS V14.01,2013-04-25 06:01:00,
2013-04-25 02:06:00,50.4,38.7,30.09,NW,323,11.0,16.0,64,0.00,,---,0.00,VWS V14.01,2013-04-25 06:06:00,
2013-04-25 02:11:00,50.1,38.0,30.09,NW,311,9.0,16.0,63,0.00,,---,0.00,VWS V14.01,2013-04-25 06:11:00,
2013-04-25 02:16:00,49.8,37.3,30.08,NW,317,8.0,18.0,62,0.00,,---,0.00,VWS V14.01,2013-04-25 06:16:00,
2013-04-25 02:21:00,49.5,37.4,30.09,North,355,7.0,18.0,63,0.00,,---,0.00,VWS V14.01,2013-04-25 06:21:00,
2013-04-25 02:26:00,49.3,36.8,30.09,NNW,338,12.0,22.0,62,0.00,,---,0.00,VWS V14.01,2013-04-25 06:26:00,
2013-04-25 02:31:00,49.2,36.8,30.10,NW,313,9.0,13.0,62,0.00,,---,0.00,VWS V14.01,2013-04-25 06:31:00,
2013-04-25 02:36:00,48.8,36.8,30.10,NNW,330,4.0,13.0,63,0.00,,---,0.00,VWS V14.01,2013-04-25 06:36:00,
2013-04-25 02:41:00,48.6,36.2,30.11,NNW,327,2.0,16.0,62,0.00,,---,0.00,VWS V14.01,2013-04-25 06:41:00,
2013-04-25 02:46:00,48.4,35.6,30.11,North,355,4.0,16.0,61,0.00,,---,0.00,VWS V14.01,2013-04-25 06:46:00,
2013-04-25 02:51:00,48.3,35.9,30.11,NNW,328,7.0,16.0,62,0.00,,---,0.00,VWS V14.01,2013-04-25 06:51:00,
2013-04-25 02:56:00,48.1,35.7,30.12,NW,313,4.0,16.0,62,0.00,,---,0.00,VWS V14.01,2013-04-25 06:56:00,
2013-04-25 03:01:00,47.8,35.8,30.12,NW,309,5.0,5.0,63,0.00,,---,0.00,VWS V14.01,2013-04-25 07:01:00,
2013-04-25 03:06:00,47.5,35.5,30.11,NW,313,3.0,7.0,63,0.00,,---,0.00,VWS V14.01,2013-04-25 07:06:00,
2013-04-25 03:11:00,47.4,35.8,30.12,North,360,5.0,9.0,64,0.00,,---,0.00,VWS V14.01,2013-04-25 07:11:00,
2013-04-25 03:15:00,47.2,36.0,30.12,NNW,345,6.0,10.0,65,0.00,,---,0.00,VWS V14.01,2013-04-25 07:15:00,
2013-04-25 03:20:00,46.9,36.2,30.12,NW,323,2.0,10.0,66,0.00,,---,0.00,VWS V14.01,2013-04-25 07:20:00,
2013-04-25 03:25:00,46.8,35.7,30.12,NNW,330,2.0,10.0,65,0.00,,---,0.00,VWS V14.01,2013-04-25 07:25:00,
2013-04-25 03:30:00,46.7,35.6,30.13,NNW,340,4.0,4.0,65,0.00,,---,0.00,VWS V14.01,2013-04-25 07:30:00,
2013-04-25 03:35:00,46.5,35.4,30.12,NNW,336,2.0,6.0,65,0.00,,---,0.00,VWS V14.01,2013-04-25 07:35:00,
2013-04-25 03:40:00,46.2,35.5,30.13,NW,319,3.0,7.0,66,0.00,,---,0.00,VWS V14.01,2013-04-25 07:40:00,
2013-04-25 03:45:00,46.0,35.3,30.13,NW,319,3.0,7.0,66,0.00,,---,0.00,VWS V14.01,2013-04-25 07:45:00,
2013-04-25 03:50:00,46.0,35.3,30.13,NNW,334,4.0,13.0,66,0.00,,---,0.00,VWS V14.01,2013-04-25 07:50:00,
2013-04-25 03:55:00,46.0,35.3,30.14,NW,323,5.0,13.0,66,0.00,,---,0.00,VWS V14.01,2013-04-25 07:55:00,
2013-04-25 04:00:00,45.9,34.8,30.14,NW,319,7.0,10.0,65,0.00,,---,0.00,VWS V14.01,2013-04-25 08:00:00,
2013-04-25 04:05:00,45.8,34.7,30.14,NNW,330,5.0,11.0,65,0.00,,---,0.00,VWS V14.01,2013-04-25 08:05:00,
2013-04-25 04:10:00,45.8,34.7,30.14,NNW,338,10.0,14.0,65,0.00,,---,0.00,VWS V14.01,2013-04-25 08:10:00,
2013-04-25 04:15:00,45.8,34.3,30.15,NNW,344,4.0,14.0,64,0.00,,---,0.00,VWS V14.01,2013-04-25 08:15:00,
2013-04-25 04:20:00,45.5,34.4,30.15,North,351,7.0,14.0,65,0.00,,---,0.00,VWS V14.01,2013-04-25 08:20:00,
2013-04-25 04:25:00,45.2,34.2,30.15,NNW,341,5.0,14.0,65,0.00,,---,0.00,VWS V14.01,2013-04-25 08:25:00,
2013-04-25 04:30:00,45.1,33.7,30.16,North,360,11.0,11.0,64,0.00,,---,0.00,VWS V14.01,2013-04-25 08:30:00,
2013-04-25 04:35:00,45.0,33.6,30.16,North,9,7.0,12.0,64,0.00,,---,0.00,VWS V14.01,2013-04-25 08:35:00,
2013-04-25 04:40:00,45.0,33.6,30.17,North,355,7.0,12.0,64,0.00,,---,0.00,VWS V14.01,2013-04-25 08:40:00,
2013-04-25 04:45:00,44.8,33.4,30.17,NNW,338,1.0,12.0,64,0.00,,---,0.00,VWS V14.01,2013-04-25 08:45:00,
2013-04-25 04:50:00,44.5,33.9,30.18,NNW,330,6.0,12.0,66,0.00,,---,0.00,VWS V14.01,2013-04-25 08:50:00,
2013-04-25 04:55:00,44.5,33.9,30.18,NNW,344,6.0,12.0,66,0.00,,---,0.00,VWS V14.01,2013-04-25 08:55:00,
2013-04-25 05:00:00,44.5,33.5,30.18,North,360,7.0,9.0,65,0.00,,---,0.00,VWS V14.01,2013-04-25 09:00:00,
2013-04-25 05:05:00,44.5,33.5,30.19,NNW,329,3.0,10.0,65,0.00,,---,0.00,VWS V14.01,2013-04-25 09:05:00,
2013-04-25 05:10:00,44.5,33.5,30.19,North,355,6.0,10.0,65,0.00,,---,0.00,VWS V14.01,2013-04-25 09:10:00,
2013-04-25 05:15:00,44.5,33.5,30.19,NNW,348,5.0,10.0,65,0.00,,---,0.00,VWS V14.01,2013-04-25 09:15:00,
2013-04-25 05:20:00,44.5,33.5,30.19,NNW,346,6.0,10.0,65,0.00,,---,0.00,VWS V14.01,2013-04-25 09:20:00,
2013-04-25 05:25:00,44.6,33.2,30.19,North,355,3.0,10.0,64,0.00,,---,0.00,VWS V14.01,2013-04-25 09:25:00,
2013-04-25 05:30:00,44.5,33.1,30.19,NNW,333,4.0,10.0,64,0.00,,---,0.00,VWS V14.01,2013-04-25 09:30:00,
2013-04-25 05:35:00,44.5,33.1,30.20,North,355,4.0,10.0,64,0.00,,---,0.00,VWS V14.01,2013-04-25 09:35:00,
2013-04-25 05:40:00,44.3,33.3,30.20,NNW,333,3.0,10.0,65,0.00,,---,0.00,VWS V14.01,2013-04-25 09:40:00,
2013-04-25 05:45:00,44.2,33.2,30.20,NNW,348,5.0,10.0,65,0.00,,---,0.00,VWS V14.01,2013-04-25 09:45:00,
2013-04-25 05:50:00,44.0,33.0,30.20,NNW,339,5.0,10.0,65,0.00,,---,0.00,VWS V14.01,2013-04-25 09:50:00,
2013-04-25 05:55:00,43.8,32.8,30.21,North,360,3.0,10.0,65,0.00,,---,0.00,VWS V14.01,2013-04-25 09:55:00,
2013-04-25 06:00:00,43.5,32.9,30.21,North,355,2.0,10.0,66,0.00,,---,0.00,VWS V14.01,2013-04-25 10:00:00,
2013-04-25 06:05:00,43.3,32.7,30.22,NNE,29,2.0,6.0,66,0.00,,---,0.00,VWS V14.01,2013-04-25 10:05:00,
2013-04-25 06:10:00,43.1,32.5,30.22,North,355,3.0,6.0,66,0.00,,---,0.00,VWS V14.01,2013-04-25 10:10:00,
2013-04-25 06:15:00,42.9,32.3,30.22,North,355,2.0,6.0,66,0.00,,---,0.00,VWS V14.01,2013-04-25 10:15:00,
2013-04-25 06:20:00,42.8,32.2,30.22,North,355,2.0,6.0,66,0.00,,---,0.00,VWS V14.01,2013-04-25 10:20:00,
2013-04-25 06:25:00,42.6,32.0,30.22,North,360,3.0,6.0,66,0.00,,---,0.00,VWS V14.01,2013-04-25 10:25:00,
2013-04-25 06:30:00,42.5,32.0,30.22,North,360,0.0,6.0,66,0.00,,---,0.00,VWS V14.01,2013-04-25 10:30:00,
2013-04-25 06:35:00,42.3,32.1,30.22,North,360,1.0,3.0,67,0.00,,---,0.00,VWS V14.01,2013-04-25 10:35:00,
2013-04-25 06:40:00,42.0,32.2,30.23,North,360,0.0,3.0,68,0.00,,---,0.00,VWS V14.01,2013-04-25 10:40:00,
2013-04-25 06:45:00,41.7,32.3,30.23,North,5,0.0,3.0,69,0.00,,---,0.00,VWS V14.01,2013-04-25 10:45:00,
2013-04-25 06:50:00,41.6,32.6,30.23,North,360,0.0,3.0,70,0.00,,---,0.00,VWS V14.01,2013-04-25 10:50:00,
2013-04-25 06:55:00,41.7,32.7,30.24,North,5,0.0,4.0,70,0.00,,---,0.00,VWS V14.01,2013-04-25 10:55:00,
2013-04-25 07:00:00,42.0,32.9,30.24,North,5,0.0,4.0,70,0.00,,---,0.00,VWS V14.01,2013-04-25 11:00:00,
2013-04-25 07:05:00,42.2,32.8,30.26,North,5,1.0,3.0,69,0.00,,---,0.00,VWS V14.01,2013-04-25 11:05:00,
2013-04-25 07:10:00,42.3,32.9,30.26,North,360,1.0,4.0,69,0.00,,---,0.00,VWS V14.01,2013-04-25 11:10:00,
2013-04-25 07:15:00,42.4,32.6,30.26,North,10,5.0,5.0,68,0.00,,---,0.00,VWS V14.01,2013-04-25 11:15:00,
2013-04-25 07:20:00,42.4,32.6,30.26,North,11,3.0,5.0,68,0.00,,---,0.00,VWS V14.01,2013-04-25 11:20:00,
2013-04-25 07:25:00,42.5,32.7,30.26,NNE,12,3.0,5.0,68,0.00,,---,0.00,VWS V14.01,2013-04-25 11:25:00,
2013-04-25 07:30:00,42.5,32.3,30.26,North,11,4.0,5.0,67,0.00,,---,0.00,VWS V14.01,2013-04-25 11:30:00,
2013-04-25 07:35:00,42.7,32.5,30.27,North,5,3.0,4.0,67,0.00,,---,0.00,VWS V14.01,2013-04-25 11:35:00,
2013-04-25 07:40:00,42.7,32.9,30.27,North,360,1.0,5.0,68,0.00,,---,0.00,VWS V14.01,2013-04-25 11:40:00,
2013-04-25 07:45:00,42.7,32.5,30.27,North,5,1.0,5.0,67,0.00,,---,0.00,VWS V14.01,2013-04-25 11:45:00,
2013-04-25 07:50:00,42.7,32.5,30.28,North,5,0.0,5.0,67,0.00,,---,0.00,VWS V14.01,2013-04-25 11:50:00,
2013-04-25 07:55:00,42.7,32.5,30.28,North,5,0.0,5.0,67,0.00,,---,0.00,VWS V14.01,2013-04-25 11:55:00,
2013-04-25 08:00:00,42.6,32.4,30.28,NNE,17,5.0,6.0,67,0.00,,---,0.00,VWS V14.01,2013-04-25 12:00:00,
2013-04-25 08:05:00,42.5,32.3,30.28,NNE,14,4.0,5.0,67,0.00,,---,0.00,VWS V14.01,2013-04-25 12:05:00,
2013-04-25 08:10:00,42.3,32.5,30.28,North,360,5.0,6.0,68,0.00,,---,0.00,VWS V14.01,2013-04-25 12:10:00,
2013-04-25 08:15:00,42.3,32.1,30.29,North,5,4.0,7.0,67,0.00,,---,0.00,VWS V14.01,2013-04-25 12:15:00,
2013-04-25 08:20:00,42.3,32.1,30.29,North,5,1.0,7.0,67,0.00,,---,0.00,VWS V14.01,2013-04-25 12:20:00,
2013-04-25 08:25:00,42.3,32.1,30.30,North,360,0.0,7.0,67,0.00,,---,0.00,VWS V14.01,2013-04-25 12:25:00,
2013-04-25 08:30:00,42.7,32.9,30.30,North,5,0.0,7.0,68,0.00,,---,0.00,VWS V14.01,2013-04-25 12:30:00,
2013-04-25 08:35:00,43.1,32.5,30.30,North,360,1.0,1.0,66,0.00,,---,0.00,VWS V14.01,2013-04-25 12:35:00,
2013-04-25 08:40:00,43.6,33.0,30.29,North,360,3.0,3.0,66,0.00,,---,0.00,VWS V14.01,2013-04-25 12:40:00,
2013-04-25 08:45:00,44.1,32.3,30.30,North,9,1.0,4.0,63,0.00,,---,0.00,VWS V14.01,2013-04-25 12:45:00,
2013-04-25 08:50:00,44.7,33.3,30.29,ENE,64,1.0,4.0,64,0.00,,---,0.00,VWS V14.01,2013-04-25 12:50:00,
2013-04-25 08:55:00,45.6,32.9,30.29,ENE,65,0.0,4.0,61,0.00,,---,0.00,VWS V14.01,2013-04-25 12:55:00,
2013-04-25 09:00:00,46.3,33.2,30.29,North,360,3.0,4.0,60,0.00,,---,0.00,VWS V14.01,2013-04-25 13:00:00,
2013-04-25 09:05:00,46.3,32.8,30.30,North,355,5.0,6.0,59,0.00,,---,0.00,VWS V14.01,2013-04-25 13:05:00,
2013-04-25 09:10:00,46.1,33.0,30.30,North,360,2.0,9.0,60,0.00,,---,0.00,VWS V14.01,2013-04-25 13:10:00,
2013-04-25 09:15:00,46.3,32.8,30.30,NNE,18,3.0,9.0,59,0.00,,---,0.00,VWS V14.01,2013-04-25 13:15:00,
2013-04-25 09:20:00,46.5,33.4,30.29,NW,313,4.0,9.0,60,0.00,,---,0.00,VWS V14.01,2013-04-25 13:20:00,
2013-04-25 09:25:00,46.1,32.2,30.30,NW,304,1.0,9.0,58,0.00,,---,0.00,VWS V14.01,2013-04-25 13:25:00,
2013-04-25 09:30:00,46.4,32.4,30.30,NNE,18,1.0,9.0,58,0.00,,---,0.00,VWS V14.01,2013-04-25 13:30:00,
2013-04-25 09:35:00,46.8,32.8,30.30,ENE,62,0.0,4.0,58,0.00,,---,0.00,VWS V14.01,2013-04-25 13:35:00,
2013-04-25 09:40:00,47.1,33.1,30.30,NW,311,3.0,4.0,58,0.00,,---,0.00,VWS V14.01,2013-04-25 13:40:00,
2013-04-25 09:45:00,47.4,33.0,30.30,NNW,344,3.0,4.0,57,0.00,,---,0.00,VWS V14.01,2013-04-25 13:45:00,
2013-04-25 09:50:00,47.8,32.9,30.29,SE,140,0.0,4.0,56,0.00,,---,0.00,VWS V14.01,2013-04-25 13:50:00,
2013-04-25 09:55:00,48.4,33.0,30.29,NW,324,6.0,7.0,55,0.00,,---,0.00,VWS V14.01,2013-04-25 13:55:00,
2013-04-25 10:00:00,48.1,33.6,30.29,North,349,3.0,7.0,57,0.00,,---,0.00,VWS V14.01,2013-04-25 14:00:00,
2013-04-25 10:05:00,48.0,33.1,30.30,NW,325,3.0,4.0,56,0.00,,---,0.00,VWS V14.01,2013-04-25 14:05:00,
2013-04-25 10:10:00,48.3,33.8,30.30,North,5,6.0,9.0,57,0.00,,---,0.00,VWS V14.01,2013-04-25 14:10:00,
2013-04-25 10:15:00,48.5,34.0,30.30,North,360,3.0,9.0,57,0.00,,---,0.00,VWS V14.01,2013-04-25 14:15:00,
2013-04-25 10:20:00,48.7,33.7,30.30,WNW,292,0.0,9.0,56,0.00,,---,0.00,VWS V14.01,2013-04-25 14:20:00,
2013-04-25 10:25:00,49.1,33.2,30.30,WNW,297,1.0,9.0,54,0.00,,---,0.00,VWS V14.01,2013-04-25 14:25:00,
2013-04-25 10:30:00,49.5,33.1,30.29,NE,45,0.0,9.0,53,0.00,,---,0.00,VWS V14.01,2013-04-25 14:30:00,
2013-04-25 10:35:00,50.3,33.8,30.30,WSW,254,1.0,4.0,53,0.00,,---,0.00,VWS V14.01,2013-04-25 14:35:00,
2013-04-25 10:40:00,50.6,34.1,30.30,NW,315,2.0,5.0,53,0.00,,---,0.00,VWS V14.01,2013-04-25 14:40:00,
2013-04-25 10:45:00,51.0,35.0,30.30,SW,215,2.0,5.0,54,0.00,,---,0.00,VWS V14.01,2013-04-25 14:45:00,
2013-04-25 10:49:00,50.8,35.2,30.30,SW,226,4.0,5.0,55,0.00,,---,0.00,VWS V14.01,2013-04-25 14:49:00,
2013-04-25 10:54:00,50.8,35.2,30.30,South,178,3.0,5.0,55,0.00,,---,0.00,VWS V14.01,2013-04-25 14:54:00,
2013-04-25 10:59:00,51.3,34.8,30.30,SSE,165,3.0,5.0,53,0.00,,---,0.00,VWS V14.01,2013-04-25 14:59:00,
2013-04-25 11:04:00,51.5,35.0,30.29,SSW,202,3.0,4.0,53,0.00,,---,0.00,VWS V14.01,2013-04-25 15:04:00,
2013-04-25 11:09:00,51.8,34.8,30.29,South,188,2.0,5.0,52,0.00,,---,0.00,VWS V14.01,2013-04-25 15:09:00,
2013-04-25 11:14:00,51.8,34.3,30.29,SSE,148,3.0,5.0,51,0.00,,---,0.00,VWS V14.01,2013-04-25 15:14:00,
2013-04-25 11:19:00,51.9,34.8,30.29,SSW,205,3.0,5.0,52,0.00,,---,0.00,VWS V14.01,2013-04-25 15:19:00,
2013-04-25 11:24:00,52.4,34.8,30.29,SSW,205,1.0,5.0,51,0.00,,---,0.00,VWS V14.01,2013-04-25 15:24:00,
2013-04-25 11:29:00,52.7,35.6,30.29,South,176,1.0,7.0,52,0.00,,---,0.00,VWS V14.01,2013-04-25 15:29:00,
2013-04-25 11:34:00,53.1,36.0,30.29,East,99,10.0,10.0,52,0.00,,---,0.00,VWS V14.01,2013-04-25 15:34:00,
2013-04-25 11:39:00,53.0,34.9,30.29,ESE,105,1.0,10.0,50,0.00,,---,0.00,VWS V14.01,2013-04-25 15:39:00,
2013-04-25 11:44:00,53.6,34.9,30.28,ESE,105,0.0,10.0,49,0.00,,---,0.00,VWS V14.01,2013-04-25 15:44:00,
2013-04-25 11:49:00,54.2,34.4,30.28,NNW,327,1.0,10.0,47,0.00,,---,0.00,VWS V14.01,2013-04-25 15:49:00,
2013-04-25 11:54:00,54.3,35.0,30.28,ENE,74,0.0,10.0,48,0.00,,---,0.00,VWS V14.01,2013-04-25 15:54:00,
2013-04-25 11:59:00,54.2,35.5,30.28,South,179,1.0,10.0,49,0.00,,---,0.00,VWS V14.01,2013-04-25 15:59:00,
2013-04-25 12:04:00,54.5,35.2,30.28,South,187,5.0,5.0,48,0.00,,---,0.00,VWS V14.01,2013-04-25 16:04:00,
2013-04-25 12:09:00,55.0,36.2,30.28,SSW,194,3.0,5.0,49,0.00,,---,0.00,VWS V14.01,2013-04-25 16:09:00,
2013-04-25 12:14:00,55.3,34.9,30.28,SW,227,0.0,5.0,46,0.00,,---,0.00,VWS V14.01,2013-04-25 16:14:00,
2013-04-25 12:19:00,55.1,35.2,30.28,South,176,5.0,8.0,47,0.00,,---,0.00,VWS V14.01,2013-04-25 16:19:00,
2013-04-25 12:24:00,54.8,34.4,30.28,North,9,1.0,8.0,46,0.00,,---,0.00,VWS V14.01,2013-04-25 16:24:00,
2013-04-25 12:29:00,54.5,34.2,30.28,ENE,59,2.0,8.0,46,0.00,,---,0.00,VWS V14.01,2013-04-25 16:29:00,
2013-04-25 12:34:00,55.3,34.9,30.28,NE,55,3.0,3.0,46,0.00,,---,0.00,VWS V14.01,2013-04-25 16:34:00,
2013-04-25 12:39:00,55.5,34.0,30.27,West,281,1.0,5.0,44,0.00,,---,0.00,VWS V14.01,2013-04-25 16:39:00,
2013-04-25 12:44:00,55.5,34.5,30.27,North,360,1.0,5.0,45,0.00,,---,0.00,VWS V14.01,2013-04-25 16:44:00,
2013-04-25 12:49:00,56.2,35.2,30.27,SSE,152,3.0,5.0,45,0.00,,---,0.00,VWS V14.01,2013-04-25 16:49:00,
2013-04-25 12:54:00,56.8,35.7,30.27,South,190,2.0,7.0,45,0.00,,---,0.00,VWS V14.01,2013-04-25 16:54:00,
2013-04-25 12:59:00,57.1,35.4,30.27,SW,232,0.0,7.0,44,0.00,,---,0.00,VWS V14.01,2013-04-25 16:59:00,
2013-04-25 13:04:00,57.5,34.6,30.27,NW,308,0.0,4.0,42,0.00,,---,0.00,VWS V14.01,2013-04-25 17:04:00,
2013-04-25 13:09:00,57.2,32.5,30.27,WSW,244,1.0,6.0,39,0.00,,---,0.00,VWS V14.01,2013-04-25 17:09:00,
2013-04-25 13:14:00,57.6,33.5,30.26,SW,220,2.0,6.0,40,0.00,,---,0.00,VWS V14.01,2013-04-25 17:14:00,
2013-04-25 13:19:00,57.4,33.3,30.26,West,280,0.0,6.0,40,0.00,,---,0.00,VWS V14.01,2013-04-25 17:19:00,
2013-04-25 13:24:00,57.6,32.2,30.26,West,272,1.0,6.0,38,0.00,,---,0.00,VWS V14.01,2013-04-25 17:24:00,
2013-04-25 13:29:00,58.1,32.0,30.26,WSW,257,0.0,6.0,37,0.00,,---,0.00,VWS V14.01,2013-04-25 17:29:00,
2013-04-25 13:34:00,59.2,33.0,30.25,SE,129,2.0,4.0,37,0.00,,---,0.00,VWS V14.01,2013-04-25 17:34:00,
2013-04-25 13:39:00,59.0,33.5,30.25,SE,134,0.0,4.0,38,0.00,,---,0.00,VWS V14.01,2013-04-25 17:39:00,
2013-04-25 13:44:00,59.0,32.8,30.25,SE,129,2.0,4.0,37,0.00,,---,0.00,VWS V14.01,2013-04-25 17:44:00,
2013-04-25 13:49:00,60.0,34.3,30.25,WNW,303,6.0,6.0,38,0.00,,---,0.00,VWS V14.01,2013-04-25 17:49:00,
2013-04-25 13:54:00,59.8,34.2,30.25,NW,306,2.0,6.0,38,0.00,,---,0.00,VWS V14.01,2013-04-25 17:54:00,
2013-04-25 13:59:00,60.3,35.3,30.25,WSW,253,2.0,6.0,39,0.00,,---,0.00,VWS V14.01,2013-04-25 17:59:00,
2013-04-25 14:04:00,59.7,32.7,30.25,WSW,253,3.0,6.0,36,0.00,,---,0.00,VWS V14.01,2013-04-25 18:04:00,
2013-04-25 14:09:00,60.1,31.7,30.25,SW,217,1.0,6.0,34,0.00,,---,0.00,VWS V14.01,2013-04-25 18:09:00,
2013-04-25 14:14:00,60.4,30.4,30.25,WNW,292,0.0,6.0,32,0.00,,---,0.00,VWS V14.01,2013-04-25 18:14:00,
2013-04-25 14:19:00,61.3,32.7,30.25,SSW,202,0.0,6.0,34,0.00,,---,0.00,VWS V14.01,2013-04-25 18:19:00,
2013-04-25 14:24:00,62.3,31.3,30.25,SSW,202,0.0,6.0,31,0.00,,---,0.00,VWS V14.01,2013-04-25 18:24:00,
2013-04-25 14:29:00,62.5,31.5,30.24,SW,234,2.0,8.0,31,0.00,,---,0.00,VWS V14.01,2013-04-25 18:29:00,
2013-04-25 14:34:00,62.2,31.2,30.24,SW,232,2.0,3.0,31,0.00,,---,0.00,VWS V14.01,2013-04-25 18:34:00,
2013-04-25 14:39:00,62.9,32.6,30.24,South,182,2.0,5.0,32,0.00,,---,0.00,VWS V14.01,2013-04-25 18:39:00,
2013-04-25 14:44:00,63.1,32.8,30.23,NW,305,4.0,6.0,32,0.00,,---,0.00,VWS V14.01,2013-04-25 18:44:00,
2013-04-25 14:49:00,62.8,33.3,30.23,South,181,4.0,6.0,33,0.00,,---,0.00,VWS V14.01,2013-04-25 18:49:00,
2013-04-25 14:54:00,63.1,32.0,30.23,ESE,122,1.0,6.0,31,0.00,,---,0.00,VWS V14.01,2013-04-25 18:54:00,
2013-04-25 14:59:00,63.8,31.8,30.23,WSW,241,0.0,6.0,30,0.00,,---,0.00,VWS V14.01,2013-04-25 18:59:00,
2013-04-25 15:04:00,63.7,31.7,30.23,WSW,248,4.0,7.0,30,0.00,,---,0.00,VWS V14.01,2013-04-25 19:04:00,
2013-04-25 15:09:00,63.3,33.0,30.22,South,179,4.0,7.0,32,0.00,,---,0.00,VWS V14.01,2013-04-25 19:09:00,
2013-04-25 15:14:00,63.0,31.9,30.22,West,263,1.0,7.0,31,0.00,,---,0.00,VWS V14.01,2013-04-25 19:14:00,
2013-04-25 15:19:00,63.7,32.5,30.22,South,170,6.0,9.0,31,0.00,,---,0.00,VWS V14.01,2013-04-25 19:19:00,
2013-04-25 15:24:00,63.6,32.4,30.22,SSW,192,1.0,12.0,31,0.00,,---,0.00,VWS V14.01,2013-04-25 19:24:00,
2013-04-25 15:29:00,64.7,32.6,30.22,SW,219,1.0,12.0,30,0.00,,---,0.00,VWS V14.01,2013-04-25 19:29:00,
2013-04-25 15:34:00,64.9,32.8,30.22,WSW,249,4.0,12.0,30,0.00,,---,0.00,VWS V14.01,2013-04-25 19:34:00,
2013-04-25 15:39:00,65.0,33.7,30.21,WNW,282,1.0,12.0,31,0.00,,---,0.00,VWS V14.01,2013-04-25 19:39:00,
2013-04-25 15:44:00,64.9,33.6,30.21,SSW,194,5.0,12.0,31,0.00,,---,0.00,VWS V14.01,2013-04-25 19:44:00,
2013-04-25 15:49:00,64.4,33.1,30.20,South,181,3.0,12.0,31,0.00,,---,0.00,VWS V14.01,2013-04-25 19:49:00,
2013-04-25 15:54:00,64.5,32.4,30.20,SW,235,4.0,12.0,30,0.00,,---,0.00,VWS V14.01,2013-04-25 19:54:00,
2013-04-25 15:59:00,64.5,34.0,30.20,WSW,256,4.0,12.0,32,0.00,,---,0.00,VWS V14.01,2013-04-25 19:59:00,
2013-04-25 16:04:00,64.6,34.1,30.20,WSW,246,1.0,5.0,32,0.00,,---,0.00,VWS V14.01,2013-04-25 20:04:00,
2013-04-25 16:09:00,65.5,34.1,30.20,NW,311,4.0,5.0,31,0.00,,---,0.00,VWS V14.01,2013-04-25 20:09:00,
2013-04-25 16:14:00,65.2,32.2,30.20,WNW,292,5.0,10.0,29,0.00,,---,0.00,VWS V14.01,2013-04-25 20:14:00,
2013-04-25 16:19:00,65.1,32.1,30.20,WSW,254,1.0,10.0,29,0.00,,---,0.00,VWS V14.01,2013-04-25 20:19:00,
2013-04-25 16:24:00,65.9,32.8,30.19,SSE,163,2.0,10.0,29,0.00,,---,0.00,VWS V14.01,2013-04-25 20:24:00,
2013-04-25 16:29:00,65.9,35.2,30.19,SSW,196,1.0,10.0,32,0.00,,---,0.00,VWS V14.01,2013-04-25 20:29:00,
2013-04-25 16:34:00,66.4,34.0,30.19,WSW,242,6.0,10.0,30,0.00,,---,0.00,VWS V14.01,2013-04-25 20:34:00,
2013-04-25 16:39:00,66.5,32.4,30.18,SW,225,0.0,10.0,28,0.00,,---,0.00,VWS V14.01,2013-04-25 20:39:00,
2013-04-25 16:44:00,66.7,32.6,30.18,WSW,241,3.0,10.0,28,0.00,,---,0.00,VWS V14.01,2013-04-25 20:44:00,
2013-04-25 16:49:00,66.3,32.2,30.19,SW,226,2.0,10.0,28,0.00,,---,0.00,VWS V14.01,2013-04-25 20:49:00,
2013-04-25 16:54:00,66.1,31.2,30.18,South,184,4.0,10.0,27,0.00,,---,0.00,VWS V14.01,2013-04-25 20:54:00,
2013-04-25 16:59:00,66.2,30.3,30.18,SSW,207,1.0,10.0,26,0.00,,---,0.00,VWS V14.01,2013-04-25 20:59:00,
2013-04-25 17:04:00,66.7,30.8,30.18,South,186,6.0,7.0,26,0.00,,---,0.00,VWS V14.01,2013-04-25 21:04:00,
2013-04-25 17:09:00,66.6,30.7,30.18,SW,219,2.0,7.0,26,0.00,,---,0.00,VWS V14.01,2013-04-25 21:09:00,
2013-04-25 17:14:00,67.0,31.0,30.18,WSW,252,2.0,7.0,26,0.00,,---,0.00,VWS V14.01,2013-04-25 21:14:00,
2013-04-25 17:19:00,66.9,30.9,30.18,SW,228,1.0,7.0,26,0.00,,---,0.00,VWS V14.01,2013-04-25 21:19:00,
2013-04-25 17:24:00,66.8,29.9,30.18,South,190,3.0,7.0,25,0.00,,---,0.00,VWS V14.01,2013-04-25 21:24:00,
2013-04-25 17:29:00,66.8,30.8,30.18,South,178,4.0,7.0,26,0.00,,---,0.00,VWS V14.01,2013-04-25 21:29:00,
2013-04-25 17:34:00,66.4,30.5,30.18,South,179,3.0,5.0,26,0.00,,---,0.00,VWS V14.01,2013-04-25 21:34:00,
2013-04-25 17:39:00,66.2,31.3,30.18,South,181,3.0,9.0,27,0.00,,---,0.00,VWS V14.01,2013-04-25 21:39:00,
2013-04-25 17:43:00,66.4,31.4,30.18,SW,228,3.0,9.0,27,0.00,,---,0.00,VWS V14.01,2013-04-25 21:43:00,
2013-04-25 17:48:00,66.5,30.6,30.18,SSW,203,0.0,9.0,26,0.00,,---,0.00,VWS V14.01,2013-04-25 21:48:00,
2013-04-25 17:53:00,66.5,30.6,30.18,SSW,202,0.0,9.0,26,0.00,,---,0.00,VWS V14.01,2013-04-25 21:53:00,
2013-04-25 17:58:00,66.8,30.8,30.18,SW,217,0.0,9.0,26,0.00,,---,0.00,VWS V14.01,2013-04-25 21:58:00,
2013-04-25 18:03:00,67.3,30.3,30.18,SW,236,5.0,5.0,25,0.00,,---,0.00,VWS V14.01,2013-04-25 22:03:00,
2013-04-25 18:08:00,67.6,31.5,30.18,SSE,168,5.0,6.0,26,0.00,,---,0.00,VWS V14.01,2013-04-25 22:08:00,
2013-04-25 18:13:00,66.8,31.8,30.19,South,188,3.0,8.0,27,0.00,,---,0.00,VWS V14.01,2013-04-25 22:13:00,
2013-04-25 18:18:00,66.7,32.6,30.18,SW,225,5.0,8.0,28,0.00,,---,0.00,VWS V14.01,2013-04-25 22:18:00,
2013-04-25 18:23:00,66.8,30.8,30.18,West,275,3.0,9.0,26,0.00,,---,0.00,VWS V14.01,2013-04-25 22:23:00,
2013-04-25 18:28:00,66.7,31.7,30.18,South,173,6.0,9.0,27,0.00,,---,0.00,VWS V14.01,2013-04-25 22:28:00,
2013-04-25 18:33:00,66.4,32.3,30.18,South,182,1.0,4.0,28,0.00,,---,0.00,VWS V14.01,2013-04-25 22:33:00,
2013-04-25 18:38:00,66.5,32.4,30.18,South,182,1.0,4.0,28,0.00,,---,0.00,VWS V14.01,2013-04-25 22:38:00,
2013-04-25 18:43:00,66.9,31.9,30.19,South,182,3.0,4.0,27,0.00,,---,0.00,VWS V14.01,2013-04-25 22:43:00,
2013-04-25 18:48:00,67.0,31.0,30.18,South,182,0.0,4.0,26,0.00,,---,0.00,VWS V14.01,2013-04-25 22:48:00,
2013-04-25 18:53:00,67.2,32.1,30.18,South,182,0.0,4.0,27,0.00,,---,0.00,VWS V14.01,2013-04-25 22:53:00,
2013-04-25 18:58:00,67.3,32.2,30.18,South,182,0.0,4.0,27,0.00,,---,0.00,VWS V14.01,2013-04-25 22:58:00,
2013-04-25 19:03:00,67.2,33.0,30.18,South,182,0.0,1.0,28,0.00,,---,0.00,VWS V14.01,2013-04-25 23:03:00,
2013-04-25 19:08:00,66.9,32.8,30.18,South,182,0.0,1.0,28,0.00,,---,0.00,VWS V14.01,2013-04-25 23:08:00,
2013-04-25 19:13:00,66.6,31.6,30.18,South,182,0.0,1.0,27,0.00,,---,0.00,VWS V14.01,2013-04-25 23:13:00,
2013-04-25 19:18:00,66.4,33.2,30.19,South,182,0.0,1.0,29,0.00,,---,0.00,VWS V14.01,2013-04-25 23:18:00,
2013-04-25 19:23:00,66.1,33.0,30.19,South,182,0.0,2.0,29,0.00,,---,0.00,VWS V14.01,2013-04-25 23:23:00,
2013-04-25 19:28:00,65.9,32.8,30.19,South,182,2.0,2.0,29,0.00,,---,0.00,VWS V14.01,2013-04-25 23:28:00,
2013-04-25 19:33:00,65.7,34.3,30.19,South,182,0.0,0.0,31,0.00,,---,0.00,VWS V14.01,2013-04-25 23:33:00,
2013-04-25 19:38:00,65.3,33.9,30.19,South,182,0.0,1.0,31,0.00,,---,0.00,VWS V14.01,2013-04-25 23:38:00,
2013-04-25 19:43:00,64.5,32.4,30.19,South,182,0.0,3.0,30,0.00,,---,0.00,VWS V14.01,2013-04-25 23:43:00,
2013-04-25 19:48:00,63.7,32.5,30.20,South,182,0.0,3.0,31,0.00,,---,0.00,VWS V14.01,2013-04-25 23:48:00,
2013-04-25 19:53:00,62.9,34.1,30.20,South,182,0.0,3.0,34,0.00,,---,0.00,VWS V14.01,2013-04-25 23:53:00,
2013-04-25 19:58:00,62.1,34.2,30.20,South,182,0.0,3.0,35,0.00,,---,0.00,VWS V14.01,2013-04-25 23:58:00,
2013-04-25 20:03:00,61.0,34.6,30.20,South,182,0.0,0.0,37,0.00,,---,0.00,VWS V14.01,2013-04-26 00:03:00,
2013-04-25 20:08:00,59.2,36.7,30.20,South,182,0.0,0.0,43,0.00,,---,0.00,VWS V14.01,2013-04-26 00:08:00,
2013-04-25 20:13:00,57.5,35.2,30.21,South,182,0.0,2.0,43,0.00,,---,0.00,VWS V14.01,2013-04-26 00:13:00,
2013-04-25 20:18:00,56.4,34.2,30.21,South,182,2.0,3.0,43,0.00,,---,0.00,VWS V14.01,2013-04-26 00:18:00,
2013-04-25 20:23:00,55.8,35.3,30.22,South,182,0.0,3.0,46,0.00,,---,0.00,VWS V14.01,2013-04-26 00:23:00,
2013-04-25 20:28:00,55.0,35.2,30.22,South,182,2.0,3.0,47,0.00,,---,0.00,VWS V14.01,2013-04-26 00:28:00,
2013-04-25 20:33:00,54.3,35.6,30.22,South,179,0.0,2.0,49,0.00,,---,0.00,VWS V14.01,2013-04-26 00:33:00,
2013-04-25 20:38:00,54.0,34.8,30.23,SSE,157,3.0,3.0,48,0.00,,---,0.00,VWS V14.01,2013-04-26 00:38:00,
2013-04-25 20:43:00,54.5,35.2,30.23,East,98,1.0,7.0,48,0.00,,---,0.00,VWS V14.01,2013-04-26 00:43:00,
2013-04-25 20:48:00,54.8,36.0,30.23,East,98,1.0,7.0,49,0.00,,---,0.00,VWS V14.01,2013-04-26 00:48:00,
2013-04-25 20:53:00,54.9,36.1,30.23,East,98,0.0,7.0,49,0.00,,---,0.00,VWS V14.01,2013-04-26 00:53:00,
2013-04-25 20:58:00,54.4,36.2,30.24,East,98,0.0,7.0,50,0.00,,---,0.00,VWS V14.01,2013-04-26 00:58:00,
2013-04-25 21:03:00,54.1,35.9,30.24,East,98,0.0,0.0,50,0.00,,---,0.00,VWS V14.01,2013-04-26 01:03:00,
2013-04-25 21:08:00,53.9,35.7,30.24,East,98,0.0,0.0,50,0.00,,---,0.00,VWS V14.01,2013-04-26 01:08:00,
2013-04-25 21:13:00,53.7,36.0,30.24,East,98,0.0,0.0,51,0.00,,---,0.00,VWS V14.01,2013-04-26 01:13:00,
2013-04-25 21:18:00,53.3,35.7,30.25,East,98,1.0,1.0,51,0.00,,---,0.00,VWS V14.01,2013-04-26 01:18:00,
2013-04-25 21:23:00,53.3,36.1,30.26,NW,313,5.0,9.0,52,0.00,,---,0.00,VWS V14.01,2013-04-26 01:23:00,
2013-04-25 21:28:00,53.7,36.0,30.27,NNW,331,2.0,11.0,51,0.00,,---,0.00,VWS V14.01,2013-04-26 01:28:00,
2013-04-25 21:33:00,53.8,36.1,30.27,NNW,337,5.0,6.0,51,0.00,,---,0.00,VWS V14.01,2013-04-26 01:33:00,
2013-04-25 21:38:00,53.7,36.0,30.28,North,355,3.0,6.0,51,0.00,,---,0.00,VWS V14.01,2013-04-26 01:38:00,
2013-04-25 21:43:00,53.8,36.1,30.29,NNE,24,2.0,6.0,51,0.00,,---,0.00,VWS V14.01,2013-04-26 01:43:00,
2013-04-25 21:48:00,53.6,35.9,30.30,NNE,24,3.0,6.0,51,0.00,,---,0.00,VWS V14.01,2013-04-26 01:48:00,
2013-04-25 21:53:00,53.6,34.9,30.30,NNE,24,3.0,6.0,49,0.00,,---,0.00,VWS V14.01,2013-04-26 01:53:00,
2013-04-25 21:58:00,53.8,33.5,30.31,North,360,5.0,7.0,46,0.00,,---,0.00,VWS V14.01,2013-04-26 01:58:00,
2013-04-25 22:03:00,53.9,33.1,30.31,North,360,4.0,6.0,45,0.00,,---,0.00,VWS V14.01,2013-04-26 02:03:00,
2013-04-25 22:08:00,54.3,31.1,30.31,NNW,345,8.0,14.0,41,0.00,,---,0.00,VWS V14.01,2013-04-26 02:08:00,
2013-04-25 22:13:00,54.7,30.9,30.31,North,360,5.0,14.0,40,0.00,,---,0.00,VWS V14.01,2013-04-26 02:13:00,
2013-04-25 22:18:00,54.9,31.0,30.31,NNE,32,4.0,14.0,40,0.00,,---,0.00,VWS V14.01,2013-04-26 02:18:00,
2013-04-25 22:23:00,54.9,30.4,30.31,North,355,4.0,14.0,39,0.00,,---,0.00,VWS V14.01,2013-04-26 02:23:00,
2013-04-25 22:28:00,55.0,29.9,30.32,NNE,13,4.0,14.0,38,0.00,,---,0.00,VWS V14.01,2013-04-26 02:28:00,
2013-04-25 22:33:00,54.9,30.4,30.32,NNW,340,4.0,5.0,39,0.00,,---,0.00,VWS V14.01,2013-04-26 02:33:00,
2013-04-25 22:38:00,54.9,29.8,30.32,NE,42,2.0,7.0,38,0.00,,---,0.00,VWS V14.01,2013-04-26 02:38:00,
2013-04-25 22:43:00,54.3,32.9,30.32,NE,49,0.0,7.0,44,0.00,,---,0.00,VWS V14.01,2013-04-26 02:43:00,
2013-04-25 22:48:00,53.2,31.9,30.33,ESE,121,1.0,7.0,44,0.00,,---,0.00,VWS V14.01,2013-04-26 02:48:00,
2013-04-25 22:53:00,52.9,31.0,30.33,ENE,76,0.0,7.0,43,0.00,,---,0.00,VWS V14.01,2013-04-26 02:53:00,
2013-04-25 22:58:00,52.7,31.4,30.33,ENE,76,0.0,7.0,44,0.00,,---,0.00,VWS V14.01,2013-04-26 02:58:00,
2013-04-25 23:03:00,52.3,32.2,30.33,ENE,76,0.0,0.0,46,0.00,,---,0.00,VWS V14.01,2013-04-26 03:03:00,
2013-04-25 23:08:00,51.9,31.2,30.33,ENE,75,0.0,0.0,45,0.00,,---,0.00,VWS V14.01,2013-04-26 03:08:00,
2013-04-25 23:13:00,51.5,32.0,30.33,ENE,76,0.0,0.0,47,0.00,,---,0.00,VWS V14.01,2013-04-26 03:13:00,
2013-04-25 23:18:00,51.0,32.0,30.33,ENE,76,0.0,0.0,48,0.00,,---,0.00,VWS V14.01,2013-04-26 03:18:00,
2013-04-25 23:23:00,50.6,31.1,30.34,ENE,76,0.0,0.0,47,0.00,,---,0.00,VWS V14.01,2013-04-26 03:23:00,
2013-04-25 23:28:00,50.3,31.4,30.34,ENE,76,0.0,1.0,48,0.00,,---,0.00,VWS V14.01,2013-04-26 03:28:00,
2013-04-25 23:33:00,49.7,32.3,30.34,ENE,76,0.0,0.0,51,0.00,,---,0.00,VWS V14.01,2013-04-26 03:33:00,
2013-04-25 23:37:00,49.1,32.2,30.34,ENE,75,0.0,0.0,52,0.00,,---,0.00,VWS V14.01,2013-04-26 03:37:00,
2013-04-25 23:42:00,48.4,32.5,30.34,ENE,75,0.0,0.0,54,0.00,,---,0.00,VWS V14.01,2013-04-26 03:42:00,
2013-04-25 23:47:00,47.8,32.4,30.34,ENE,76,0.0,0.0,55,0.00,,---,0.00,VWS V14.01,2013-04-26 03:47:00,
2013-04-25 23:52:00,47.7,32.3,30.34,ENE,76,0.0,2.0,55,0.00,,---,0.00,VWS V14.01,2013-04-26 03:52:00,
2013-04-25 23:57:00,47.5,32.2,30.34,ENE,76,0.0,2.0,55,0.00,,---,0.00,VWS V14.01,2013-04-26 03:57:00,